Time,TemperatureF,DewpointF,PressureIn,WindDirection,WindDirectionDegrees,WindSpeedMPH,WindSpeedGustMPH,Humidity,HourlyPrecipIn,Conditions,Clouds,dailyrainin,SoftwareType,DateUTC
2013-02-08 00:00:00,42.7,41.9,30.02,ENE,65,0.0,0.0,97,0.19,,,0.46,Wunderground v.1.15,2013-02-08 05:00:00,
2013-02-08 00:05:00,42.8,42.0,30.02,NW,309,0.0,1.0,97,0.23,,,0.02,Wunderground v.1.15,2013-02-08 05:05:00,
2013-02-08 00:15:00,42.8,42.0,30.01,NNW,329,0.0,1.0,97,0.16,,,0.04,Wunderground v.1.15,2013-02-08 05:15:00,
2013-02-08 00:20:00,42.8,42.0,30.01,NNW,339,0.0,0.0,97,0.13,,,0.06,Wunderground v.1.15,2013-02-08 05:20:00,
2013-02-08 00:25:00,42.9,42.1,30.01,North,355,0.0,0.0,97,0.11,,,0.06,Wunderground v.1.15,2013-02-08 05:25:00,
2013-02-08 00:30:00,42.9,42.1,30.00,North,11,0.0,1.0,97,0.13,,,0.08,Wunderground v.1.15,2013-02-08 05:30:00,
2013-02-08 00:40:00,42.9,42.1,30.00,NNW,336,0.0,0.0,97,0.15,,,0.10,Wunderground v.1.15,2013-02-08 05:40:00,
2013-02-08 00:45:00,43.0,42.2,30.00,SE,130,0.0,0.0,97,0.15,,,0.11,Wunderground v.1.15,2013-02-08 05:45:00,
2013-02-08 00:50:00,43.1,42.3,30.00,ENE,73,0.0,0.0,97,0.19,,,0.13,Wunderground v.1.15,2013-02-08 05:50:00,
2013-02-08 00:55:00,43.1,42.3,29.99,North,360,0.0,0.0,97,0.20,,,0.14,Wunderground v.1.15,2013-02-08 05:55:00,
2013-02-08 01:00:00,43.1,42.3,29.99,East,97,1.0,1.0,97,0.19,,,0.16,Wunderground v.1.15,2013-02-08 06:00:00,
2013-02-08 01:05:00,43.1,42.3,29.98,East,81,1.0,3.0,97,0.19,,,0.18,Wunderground v.1.15,2013-02-08 06:05:00,
2013-02-08 01:10:00,43.1,42.3,29.98,West,265,1.0,1.0,97,0.15,,,0.19,Wunderground v.1.15,2013-02-08 06:10:00,
2013-02-08 01:15:00,43.1,42.3,29.97,North,5,1.0,2.0,97,0.15,,,0.20,Wunderground v.1.15,2013-02-08 06:15:00,
2013-02-08 01:20:00,43.1,42.3,29.96,WSW,248,1.0,1.0,97,0.15,,,0.21,Wunderground v.1.15,2013-02-08 06:20:00,
2013-02-08 01:25:00,43.1,42.3,29.95,ESE,117,1.0,1.0,97,0.16,,,0.23,Wunderground v.1.15,2013-02-08 06:25:00,
2013-02-08 01:30:00,43.1,42.3,29.95,NNW,327,1.0,2.0,97,0.17,,,0.24,Wunderground v.1.15,2013-02-08 06:30:00,
2013-02-08 01:35:00,43.1,42.3,29.94,NNE,17,1.0,2.0,97,0.21,,,0.26,Wunderground v.1.15,2013-02-08 06:35:00,
2013-02-08 01:45:00,43.0,42.2,29.94,SE,128,1.0,1.0,97,0.17,,,0.28,Wunderground v.1.15,2013-02-08 06:45:00,
2013-02-08 01:50:00,43.0,42.2,29.93,North,355,1.0,1.0,97,0.19,,,0.30,Wunderground v.1.15,2013-02-08 06:50:00,
2013-02-08 01:55:00,42.9,42.1,29.93,NW,324,1.0,1.0,97,0.16,,,0.31,Wunderground v.1.15,2013-02-08 06:55:00,
2013-02-08 02:00:00,42.9,42.1,29.93,ENE,78,0.0,3.0,97,0.18,,,0.33,Wunderground v.1.15,2013-02-08 07:00:00,
2013-02-08 02:05:00,42.9,42.1,29.93,SW,217,1.0,3.0,97,0.15,,,0.34,Wunderground v.1.15,2013-02-08 07:05:00,
2013-02-08 02:15:00,42.8,42.0,29.92,North,360,1.0,3.0,97,0.23,,,0.38,Wunderground v.1.15,2013-02-08 07:15:00,
2013-02-08 02:20:00,42.8,42.0,29.91,North,5,1.0,3.0,97,0.21,,,0.39,Wunderground v.1.15,2013-02-08 07:20:00,
2013-02-08 02:25:00,42.8,42.0,29.91,WNW,288,1.0,3.0,97,0.16,,,0.40,Wunderground v.1.15,2013-02-08 07:25:00,
2013-02-08 02:30:00,42.7,41.9,29.91,NW,315,1.0,6.0,97,0.12,,,0.41,Wunderground v.1.15,2013-02-08 07:30:00,
2013-02-08 02:35:00,42.7,41.9,29.91,East,96,2.0,6.0,97,0.10,,,0.42,Wunderground v.1.15,2013-02-08 07:35:00,
2013-02-08 02:40:00,42.7,41.9,29.91,WNW,300,1.0,1.0,97,0.17,,,0.44,Wunderground v.1.15,2013-02-08 07:40:00,
2013-02-08 02:45:00,42.6,41.8,29.91,North,11,1.0,2.0,97,0.16,,,0.45,Wunderground v.1.15,2013-02-08 07:45:00,
2013-02-08 02:55:00,42.5,41.7,29.91,NNW,330,1.0,1.0,97,0.23,,,0.49,Wunderground v.1.15,2013-02-08 07:55:00,
2013-02-08 03:00:00,42.5,41.7,29.90,NNW,329,1.0,1.0,97,0.27,,,0.51,Wunderground v.1.15,2013-02-08 08:00:00,
2013-02-08 03:05:00,42.4,41.6,29.90,SW,221,1.0,2.0,97,0.23,,,0.53,Wunderground v.1.15,2013-02-08 08:05:00,
2013-02-08 03:15:00,42.2,41.4,29.90,West,267,2.0,9.0,97,0.26,,,0.57,Wunderground v.1.15,2013-02-08 08:15:00,
2013-02-08 03:25:00,42.0,41.2,29.89,NW,306,1.0,2.0,97,0.23,,,0.61,Wunderground v.1.15,2013-02-08 08:25:00,
2013-02-08 03:30:00,42.0,41.2,29.89,North,360,1.0,1.0,97,0.18,,,0.62,Wunderground v.1.15,2013-02-08 08:30:00,
2013-02-08 03:35:00,41.9,41.1,29.88,NNE,14,2.0,2.0,97,0.16,,,0.63,Wunderground v.1.15,2013-02-08 08:35:00,
2013-02-08 03:40:00,41.8,41.0,29.88,West,267,2.0,2.0,97,0.14,,,0.65,Wunderground v.1.15,2013-02-08 08:40:00,
2013-02-08 03:45:00,41.8,41.0,29.88,NNW,339,2.0,3.0,97,0.13,,,0.66,Wunderground v.1.15,2013-02-08 08:45:00,
2013-02-08 03:50:00,41.7,40.9,29.88,South,190,1.0,1.0,97,0.11,,,0.67,Wunderground v.1.15,2013-02-08 08:50:00,
2013-02-08 04:00:00,41.6,40.8,29.87,WNW,303,1.0,2.0,97,0.12,,,0.69,Wunderground v.1.15,2013-02-08 09:00:00,
2013-02-08 04:05:00,41.6,40.8,29.86,North,355,1.0,2.0,97,0.13,,,0.70,Wunderground v.1.15,2013-02-08 09:05:00,
2013-02-08 04:15:00,41.5,40.7,29.85,WNW,293,1.0,1.0,97,0.07,,,0.71,Wunderground v.1.15,2013-02-08 09:15:00,
2013-02-08 04:20:00,41.5,40.7,29.85,NNW,331,1.0,1.0,97,0.07,,,0.71,Wunderground v.1.15,2013-02-08 09:20:00,
2013-02-08 04:25:00,41.5,40.7,29.85,NW,317,1.0,2.0,97,0.05,,,0.71,Wunderground v.1.15,2013-02-08 09:25:00,
2013-02-08 04:30:00,41.5,40.7,29.85,ESE,116,1.0,1.0,97,0.05,,,0.72,Wunderground v.1.15,2013-02-08 09:30:00,
2013-02-08 04:35:00,41.5,40.7,29.84,WSW,244,2.0,2.0,97,0.05,,,0.72,Wunderground v.1.15,2013-02-08 09:35:00,
2013-02-08 04:40:00,41.5,40.7,29.84,West,265,2.0,2.0,97,0.04,,,0.72,Wunderground v.1.15,2013-02-08 09:40:00,
2013-02-08 04:50:00,41.5,40.7,29.84,SW,225,1.0,1.0,97,0.04,,,0.73,Wunderground v.1.15,2013-02-08 09:50:00,
2013-02-08 04:55:00,41.5,40.7,29.84,SSW,201,1.0,1.0,97,0.04,,,0.73,Wunderground v.1.15,2013-02-08 09:55:00,
2013-02-08 05:00:00,41.5,40.7,29.83,NW,313,1.0,3.0,97,0.00,,,0.73,Wunderground v.1.15,2013-02-08 10:00:00,
2013-02-08 05:05:00,41.5,40.7,29.83,WSW,248,1.0,4.0,97,0.00,,,0.73,Wunderground v.1.15,2013-02-08 10:05:00,
2013-02-08 05:15:00,41.4,40.6,29.83,SSW,213,1.0,2.0,97,0.00,,,0.73,Wunderground v.1.15,2013-02-08 10:15:00,
2013-02-08 05:20:00,41.4,40.6,29.83,WNW,289,1.0,1.0,97,0.00,,,0.73,Wunderground v.1.15,2013-02-08 10:20:00,
2013-02-08 05:25:00,41.3,40.5,29.83,NNW,333,1.0,1.0,97,0.00,,,0.74,Wunderground v.1.15,2013-02-08 10:25:00,
2013-02-08 05:30:00,41.3,40.5,29.84,West,265,1.0,1.0,97,0.00,,,0.74,Wunderground v.1.15,2013-02-08 10:30:00,
2013-02-08 05:40:00,41.3,40.5,29.84,West,267,1.0,4.0,97,0.00,,,0.74,Wunderground v.1.15,2013-02-08 10:40:00,
2013-02-08 05:45:00,41.4,40.6,29.84,West,275,1.0,4.0,97,0.00,,,0.74,Wunderground v.1.15,2013-02-08 10:45:00,
2013-02-08 05:50:00,41.3,40.5,29.84,WSW,250,1.0,1.0,97,0.00,,,0.74,Wunderground v.1.15,2013-02-08 10:50:00,
2013-02-08 05:55:00,41.3,40.5,29.83,NNW,342,1.0,1.0,97,0.00,,,0.74,Wunderground v.1.15,2013-02-08 10:55:00,
2013-02-08 06:00:00,41.3,40.5,29.83,West,271,1.0,2.0,97,0.00,,,0.74,Wunderground v.1.15,2013-02-08 11:00:00,
2013-02-08 06:05:00,41.3,40.5,29.82,South,191,1.0,2.0,97,0.00,,,0.74,Wunderground v.1.15,2013-02-08 11:05:00,
2013-02-08 06:15:00,41.3,40.5,29.84,NNW,339,1.0,2.0,97,0.00,,,0.74,Wunderground v.1.15,2013-02-08 11:15:00,
2013-02-08 06:25:00,41.2,40.4,29.84,SW,232,1.0,2.0,97,0.00,,,0.74,Wunderground v.1.15,2013-02-08 11:25:00,
2013-02-08 06:30:00,41.2,40.4,29.83,ENE,69,2.0,2.0,97,0.00,,,0.74,Wunderground v.1.15,2013-02-08 11:30:00,
2013-02-08 06:35:00,41.1,40.3,29.83,NNE,15,2.0,2.0,97,0.00,,,0.74,Wunderground v.1.15,2013-02-08 11:35:00,
2013-02-08 06:45:00,41.1,40.3,29.83,SSW,205,1.0,1.0,97,0.00,,,0.74,Wunderground v.1.15,2013-02-08 11:45:00,
2013-02-08 06:50:00,41.0,40.2,29.84,West,276,1.0,2.0,97,0.00,,,0.74,Wunderground v.1.15,2013-02-08 11:50:00,
2013-02-08 06:55:00,41.0,40.2,29.83,West,281,1.0,2.0,97,0.00,,,0.74,Wunderground v.1.15,2013-02-08 11:55:00,
2013-02-08 07:00:00,41.0,40.2,29.83,West,277,1.0,1.0,97,0.00,,,0.74,Wunderground v.1.15,2013-02-08 12:00:00,
2013-02-08 07:05:00,40.9,40.1,29.83,SSE,162,1.0,1.0,97,0.00,,,0.74,Wunderground v.1.15,2013-02-08 12:05:00,
2013-02-08 07:15:00,40.9,40.1,29.83,WSW,250,1.0,2.0,97,0.00,,,0.74,Wunderground v.1.15,2013-02-08 12:15:00,
2013-02-08 07:20:00,40.8,40.0,29.84,NNW,332,1.0,1.0,97,0.00,,,0.74,Wunderground v.1.15,2013-02-08 12:20:00,
2013-02-08 07:25:00,40.8,40.0,29.84,West,273,1.0,1.0,97,0.00,,,0.74,Wunderground v.1.15,2013-02-08 12:25:00,
2013-02-08 07:30:00,40.8,40.0,29.84,West,273,1.0,5.0,97,0.00,,,0.74,Wunderground v.1.15,2013-02-08 12:30:00,
2013-02-08 07:35:00,40.8,40.0,29.84,WNW,296,1.0,5.0,97,0.00,,,0.74,Wunderground v.1.15,2013-02-08 12:35:00,
2013-02-08 07:40:00,40.8,40.0,29.84,NW,309,1.0,1.0,97,0.00,,,0.74,Wunderground v.1.15,2013-02-08 12:40:00,
2013-02-08 07:45:00,40.7,39.9,29.84,WSW,249,1.0,2.0,97,0.00,,,0.74,Wunderground v.1.15,2013-02-08 12:45:00,
2013-02-08 07:50:00,40.6,39.8,29.85,West,280,1.0,1.0,97,0.00,,,0.74,Wunderground v.1.15,2013-02-08 12:50:00,
2013-02-08 08:00:00,40.4,39.6,29.85,North,5,1.0,3.0,97,0.00,,,0.74,Wunderground v.1.15,2013-02-08 13:00:00,
2013-02-08 08:05:00,40.2,39.4,29.85,NW,304,1.0,3.0,97,0.00,,,0.74,Wunderground v.1.15,2013-02-08 13:05:00,
2013-02-08 08:15:00,39.8,39.0,29.85,NW,314,1.0,1.0,97,0.00,,,0.74,Wunderground v.1.15,2013-02-08 13:15:00,
2013-02-08 08:25:00,39.6,38.8,29.86,NW,310,1.0,2.0,97,0.00,,,0.74,Wunderground v.1.15,2013-02-08 13:25:00,
2013-02-08 08:30:00,39.5,38.7,29.86,WNW,284,1.0,3.0,97,0.00,,,0.74,Wunderground v.1.15,2013-02-08 13:30:00,
2013-02-08 08:35:00,39.4,38.6,29.86,WNW,301,1.0,3.0,97,0.00,,,0.74,Wunderground v.1.15,2013-02-08 13:35:00,
2013-02-08 08:40:00,39.3,38.5,29.86,SSE,167,1.0,2.0,97,0.00,,,0.74,Wunderground v.1.15,2013-02-08 13:40:00,
2013-02-08 08:45:00,39.3,38.5,29.86,NW,309,1.0,3.0,97,0.00,,,0.74,Wunderground v.1.15,2013-02-08 13:45:00,
2013-02-08 08:50:00,39.2,38.4,29.86,NW,323,1.0,1.0,97,0.00,,,0.74,Wunderground v.1.15,2013-02-08 13:50:00,
2013-02-08 09:00:00,39.1,38.1,29.86,WNW,294,1.0,1.0,96,0.00,,,0.74,Wunderground v.1.15,2013-02-08 14:00:00,
2013-02-08 09:05:00,39.2,38.4,29.86,WNW,286,2.0,2.0,97,0.00,,,0.74,Wunderground v.1.15,2013-02-08 14:05:00,
2013-02-08 09:15:00,39.3,38.3,29.86,SW,229,2.0,2.0,96,0.00,,,0.74,Wunderground v.1.15,2013-02-08 14:15:00,
2013-02-08 09:20:00,39.3,38.5,29.86,SW,226,1.0,1.0,97,0.00,,,0.74,Wunderground v.1.15,2013-02-08 14:20:00,
2013-02-08 09:25:00,39.5,38.7,29.86,West,261,1.0,1.0,97,0.00,,,0.74,Wunderground v.1.15,2013-02-08 14:25:00,
2013-02-08 09:30:00,39.5,38.7,29.86,NW,311,1.0,1.0,97,0.00,,,0.74,Wunderground v.1.15,2013-02-08 14:30:00,
2013-02-08 09:35:00,39.5,38.7,29.86,NNW,334,1.0,1.0,97,0.00,,,0.74,Wunderground v.1.15,2013-02-08 14:35:00,
2013-02-08 09:40:00,39.6,38.6,29.86,West,259,1.0,1.0,96,0.00,,,0.74,Wunderground v.1.15,2013-02-08 14:40:00,
2013-02-08 09:45:00,39.6,38.6,29.86,NW,310,1.0,1.0,96,0.00,,,0.74,Wunderground v.1.15,2013-02-08 14:45:00,
2013-02-08 09:50:00,39.7,38.7,29.87,NW,323,1.0,2.0,96,0.00,,,0.74,Wunderground v.1.15,2013-02-08 14:50:00,
2013-02-08 09:55:00,39.8,39.0,29.87,NW,308,2.0,2.0,97,0.00,,,0.74,Wunderground v.1.15,2013-02-08 14:55:00,
2013-02-08 10:05:00,40.0,39.0,29.86,WNW,303,1.0,1.0,96,0.00,,,0.74,Wunderground v.1.15,2013-02-08 15:05:00,
2013-02-08 10:15:00,40.2,39.2,29.87,SSW,201,1.0,2.0,96,0.00,,,0.74,Wunderground v.1.15,2013-02-08 15:15:00,
2013-02-08 10:20:00,40.3,39.3,29.87,NE,49,1.0,1.0,96,0.00,,,0.74,Wunderground v.1.15,2013-02-08 15:20:00,
2013-02-08 10:25:00,40.4,39.4,29.88,WNW,291,1.0,1.0,96,0.00,,,0.74,Wunderground v.1.15,2013-02-08 15:25:00,
2013-02-08 10:30:00,40.5,39.4,29.88,WNW,288,1.0,2.0,96,0.00,,,0.74,Wunderground v.1.15,2013-02-08 15:30:00,
2013-02-08 10:40:00,40.8,39.7,29.89,NW,313,2.0,2.0,96,0.00,,,0.74,Wunderground v.1.15,2013-02-08 15:40:00,
2013-02-08 10:45:00,41.0,39.9,29.89,West,266,2.0,2.0,96,0.00,,,0.74,Wunderground v.1.15,2013-02-08 15:45:00,
2013-02-08 10:50:00,41.2,40.1,29.88,NW,311,1.0,1.0,96,0.00,,,0.74,Wunderground v.1.15,2013-02-08 15:50:00,
2013-02-08 10:55:00,41.5,40.4,29.88,West,281,1.0,5.0,96,0.00,,,0.74,Wunderground v.1.15,2013-02-08 15:55:00,
2013-02-08 11:00:00,41.7,40.6,29.88,West,279,2.0,2.0,96,0.00,,,0.74,Wunderground v.1.15,2013-02-08 16:00:00,
2013-02-08 11:05:00,41.9,40.6,29.88,WNW,284,2.0,2.0,95,0.00,,,0.74,Wunderground v.1.15,2013-02-08 16:05:00,
2013-02-08 11:15:00,42.5,41.2,29.88,WSW,257,1.0,2.0,95,0.00,,,0.74,Wunderground v.1.15,2013-02-08 16:15:00,
2013-02-08 11:20:00,42.7,41.4,29.88,WNW,285,1.0,1.0,95,0.00,,,0.74,Wunderground v.1.15,2013-02-08 16:20:00,
2013-02-08 11:30:00,43.2,41.6,29.88,WNW,284,1.0,1.0,94,0.00,,,0.74,Wunderground v.1.15,2013-02-08 16:30:00,
2013-02-08 11:35:00,43.5,41.9,29.87,South,173,2.0,2.0,94,0.00,,,0.74,Wunderground v.1.15,2013-02-08 16:35:00,
2013-02-08 11:40:00,44.0,42.1,29.87,WNW,287,3.0,3.0,93,0.00,,,0.74,Wunderground v.1.15,2013-02-08 16:40:00,
2013-02-08 11:45:00,44.4,42.2,29.87,NW,305,3.0,3.0,92,0.00,,,0.74,Wunderground v.1.15,2013-02-08 16:45:00,
2013-02-08 11:55:00,44.9,42.1,29.87,NW,305,3.0,3.0,90,0.00,,,0.74,Wunderground v.1.15,2013-02-08 16:55:00,
2013-02-08 12:00:00,45.1,42.3,29.87,West,273,2.0,2.0,90,0.00,,,0.74,Wunderground v.1.15,2013-02-08 17:00:00,
2013-02-08 12:05:00,45.2,42.2,29.86,WNW,292,2.0,2.0,89,0.00,,,0.74,Wunderground v.1.15,2013-02-08 17:05:00,
2013-02-08 12:15:00,46.3,43.2,29.87,West,271,2.0,2.0,89,0.00,,,0.74,Wunderground v.1.15,2013-02-08 17:15:00,
2013-02-08 12:25:00,46.9,43.2,29.86,SE,136,2.0,3.0,87,0.00,,,0.74,Wunderground v.1.15,2013-02-08 17:25:00,
2013-02-08 12:30:00,47.0,43.0,29.86,WNW,286,2.0,2.0,86,0.00,,,0.74,Wunderground v.1.15,2013-02-08 17:30:00,
2013-02-08 12:40:00,47.8,43.8,29.85,ESE,104,1.0,1.0,86,0.00,,,0.74,Wunderground v.1.15,2013-02-08 17:40:00,
2013-02-08 12:45:00,48.3,44.0,29.84,South,170,1.0,3.0,85,0.00,,,0.74,Wunderground v.1.15,2013-02-08 17:45:00,
2013-02-08 12:55:00,48.6,43.7,29.85,NW,321,2.0,2.0,83,0.00,,,0.74,Wunderground v.1.15,2013-02-08 17:55:00,
2013-02-08 13:00:00,48.8,44.2,29.84,NW,307,2.0,2.0,84,0.00,,,0.74,Wunderground v.1.15,2013-02-08 18:00:00,
2013-02-08 13:05:00,49.6,44.6,29.84,WNW,298,2.0,2.0,83,0.00,,,0.74,Wunderground v.1.15,2013-02-08 18:05:00,
2013-02-08 13:15:00,50.2,44.6,29.84,West,272,2.0,2.0,81,0.00,,,0.74,Wunderground v.1.15,2013-02-08 18:15:00,
2013-02-08 13:20:00,50.1,44.2,29.84,West,267,2.0,2.0,80,0.00,,,0.74,Wunderground v.1.15,2013-02-08 18:20:00,
2013-02-08 13:30:00,50.8,44.9,29.84,WNW,295,2.0,2.0,80,0.00,,,0.74,Wunderground v.1.15,2013-02-08 18:30:00,
2013-02-08 13:35:00,51.3,45.3,29.84,South,186,2.0,2.0,80,0.00,,,0.74,Wunderground v.1.15,2013-02-08 18:35:00,
2013-02-08 13:40:00,51.6,45.6,29.83,NNW,328,2.0,2.0,80,0.00,,,0.74,Wunderground v.1.15,2013-02-08 18:40:00,
2013-02-08 13:50:00,51.8,45.2,29.83,NW,310,2.0,2.0,78,0.00,,,0.74,Wunderground v.1.15,2013-02-08 18:50:00,
2013-02-08 13:55:00,51.9,45.3,29.83,WNW,295,2.0,2.0,78,0.00,,,0.74,Wunderground v.1.15,2013-02-08 18:55:00,
2013-02-08 14:05:00,52.2,45.5,29.83,WNW,300,2.0,7.0,78,0.00,,,0.74,Wunderground v.1.15,2013-02-08 19:05:00,
2013-02-08 14:15:00,52.6,45.9,29.84,NW,316,2.0,3.0,78,0.00,,,0.74,Wunderground v.1.15,2013-02-08 19:15:00,
2013-02-08 14:20:00,52.9,45.9,29.84,WNW,296,3.0,7.0,77,0.00,,,0.74,Wunderground v.1.15,2013-02-08 19:20:00,
2013-02-08 14:25:00,52.8,45.4,29.83,SSE,167,3.0,7.0,76,0.00,,,0.74,Wunderground v.1.15,2013-02-08 19:25:00,
2013-02-08 14:30:00,52.8,45.8,29.83,SSW,204,3.0,3.0,77,0.00,,,0.74,Wunderground v.1.15,2013-02-08 19:30:00,
2013-02-08 14:40:00,53.2,45.8,29.83,SSE,157,2.0,5.0,76,0.00,,,0.74,Wunderground v.1.15,2013-02-08 19:40:00,
2013-02-08 14:45:00,53.1,46.1,29.83,NW,307,2.0,5.0,77,0.00,,,0.74,Wunderground v.1.15,2013-02-08 19:45:00,
2013-02-08 14:50:00,53.4,46.0,29.83,ESE,107,2.0,2.0,76,0.00,,,0.74,Wunderground v.1.15,2013-02-08 19:50:00,
2013-02-08 14:55:00,53.6,45.9,29.83,SSE,153,3.0,4.0,75,0.00,,,0.74,Wunderground v.1.15,2013-02-08 19:55:00,
2013-02-08 15:00:00,54.1,46.7,29.83,NNW,345,3.0,3.0,76,0.00,,,0.74,Wunderground v.1.15,2013-02-08 20:00:00,
2013-02-08 15:05:00,54.4,46.3,29.83,SE,142,2.0,3.0,74,0.00,,,0.74,Wunderground v.1.15,2013-02-08 20:05:00,
2013-02-08 15:15:00,54.1,46.0,29.83,SE,144,3.0,3.0,74,0.00,,,0.74,Wunderground v.1.15,2013-02-08 20:15:00,
2013-02-08 15:25:00,53.7,46.0,29.83,West,279,2.0,2.0,75,0.00,,,0.74,Wunderground v.1.15,2013-02-08 20:25:00,
2013-02-08 15:30:00,53.6,46.2,29.83,SSW,212,2.0,2.0,76,0.00,,,0.74,Wunderground v.1.15,2013-02-08 20:30:00,
2013-02-08 15:35:00,53.5,46.1,29.83,NW,312,2.0,2.0,76,0.00,,,0.74,Wunderground v.1.15,2013-02-08 20:35:00,
2013-02-08 15:40:00,53.3,45.9,29.83,SSW,204,2.0,2.0,76,0.00,,,0.74,Wunderground v.1.15,2013-02-08 20:40:00,
2013-02-08 15:50:00,53.4,46.4,29.83,NNW,333,1.0,1.0,77,0.00,,,0.74,Wunderground v.1.15,2013-02-08 20:50:00,
2013-02-08 15:55:00,53.5,46.5,29.83,WNW,289,1.0,3.0,77,0.00,,,0.74,Wunderground v.1.15,2013-02-08 20:55:00,
2013-02-08 16:00:00,53.6,46.2,29.84,WNW,289,2.0,2.0,76,0.00,,,0.74,Wunderground v.1.15,2013-02-08 21:00:00,
2013-02-08 16:05:00,53.8,46.8,29.83,SSW,203,2.0,2.0,77,0.00,,,0.74,Wunderground v.1.15,2013-02-08 21:05:00,
2013-02-08 16:15:00,54.7,46.9,29.84,NW,321,2.0,4.0,75,0.00,,,0.74,Wunderground v.1.15,2013-02-08 21:15:00,
2013-02-08 16:20:00,54.7,46.6,29.83,SSE,150,2.0,2.0,74,0.00,,,0.74,Wunderground v.1.15,2013-02-08 21:20:00,
2013-02-08 16:25:00,54.4,46.3,29.83,ESE,123,3.0,3.0,74,0.00,,,0.74,Wunderground v.1.15,2013-02-08 21:25:00,
2013-02-08 16:30:00,54.2,46.4,29.84,South,183,3.0,6.0,75,0.00,,,0.74,Wunderground v.1.15,2013-02-08 21:30:00,
2013-02-08 16:35:00,54.1,46.3,29.84,SSE,155,3.0,6.0,75,0.00,,,0.74,Wunderground v.1.15,2013-02-08 21:35:00,
2013-02-08 16:40:00,54.0,46.3,29.84,WNW,302,2.0,3.0,75,0.00,,,0.74,Wunderground v.1.15,2013-02-08 21:40:00,
2013-02-08 16:45:00,53.8,46.1,29.84,South,181,2.0,3.0,75,0.00,,,0.74,Wunderground v.1.15,2013-02-08 21:45:00,
2013-02-08 16:50:00,53.7,46.3,29.84,SSE,165,1.0,1.0,76,0.00,,,0.74,Wunderground v.1.15,2013-02-08 21:50:00,
2013-02-08 16:55:00,53.8,46.8,29.84,South,169,1.0,2.0,77,0.00,,,0.74,Wunderground v.1.15,2013-02-08 21:55:00,
2013-02-08 17:00:00,53.6,46.2,29.84,NNW,328,1.0,4.0,76,0.00,,,0.74,Wunderground v.1.15,2013-02-08 22:00:00,
2013-02-08 17:05:00,53.5,46.1,29.84,NW,304,2.0,4.0,76,0.00,,,0.74,Wunderground v.1.15,2013-02-08 22:05:00,
2013-02-08 17:15:00,53.3,46.3,29.84,West,276,2.0,4.0,77,0.00,,,0.74,Wunderground v.1.15,2013-02-08 22:15:00,
2013-02-08 17:20:00,53.2,46.2,29.85,West,275,2.0,2.0,77,0.00,,,0.74,Wunderground v.1.15,2013-02-08 22:20:00,
2013-02-08 17:25:00,53.1,46.1,29.85,WNW,302,2.0,2.0,77,0.00,,,0.74,Wunderground v.1.15,2013-02-08 22:25:00,
2013-02-08 17:30:00,52.9,46.2,29.85,WSW,251,1.0,1.0,78,0.00,,,0.74,Wunderground v.1.15,2013-02-08 22:30:00,
2013-02-08 17:35:00,52.7,46.0,29.85,WNW,283,1.0,1.0,78,0.00,,,0.74,Wunderground v.1.15,2013-02-08 22:35:00,
2013-02-08 17:40:00,52.5,45.8,29.85,NW,307,0.0,0.0,78,0.00,,,0.74,Wunderground v.1.15,2013-02-08 22:40:00,
2013-02-08 17:45:00,52.3,46.0,29.86,NW,308,0.0,0.0,79,0.00,,,0.74,Wunderground v.1.15,2013-02-08 22:45:00,
2013-02-08 17:50:00,52.1,45.8,29.86,NW,308,0.0,0.0,79,0.00,,,0.74,Wunderground v.1.15,2013-02-08 22:50:00,
2013-02-08 18:00:00,51.5,45.5,29.86,NW,308,0.0,0.0,80,0.00,,,0.74,Wunderground v.1.15,2013-02-08 23:00:00,
2013-02-08 18:05:00,51.2,45.6,29.86,NW,308,0.0,0.0,81,0.00,,,0.74,Wunderground v.1.15,2013-02-08 23:05:00,
2013-02-08 18:15:00,50.6,45.0,29.87,NW,308,0.0,0.0,81,0.00,,,0.74,Wunderground v.1.15,2013-02-08 23:15:00,
2013-02-08 18:25:00,49.7,44.4,29.87,NW,308,0.0,0.0,82,0.00,,,0.74,Wunderground v.1.15,2013-02-08 23:25:00,
2013-02-08 18:30:00,49.2,44.3,29.87,NW,308,0.0,0.0,83,0.00,,,0.74,Wunderground v.1.15,2013-02-08 23:30:00,
2013-02-08 18:35:00,48.7,44.1,29.87,NW,308,0.0,0.0,84,0.00,,,0.74,Wunderground v.1.15,2013-02-08 23:35:00,
2013-02-08 18:45:00,48.4,44.4,29.88,NW,308,0.0,0.0,86,0.00,,,0.74,Wunderground v.1.15,2013-02-08 23:45:00,
2013-02-08 18:50:00,48.1,44.1,29.89,NW,308,0.0,0.0,86,0.00,,,0.74,Wunderground v.1.15,2013-02-08 23:50:00,
2013-02-08 18:55:00,47.7,43.7,29.89,NW,308,0.0,0.0,86,0.00,,,0.74,Wunderground v.1.15,2013-02-08 23:55:00,
2013-02-08 19:00:00,47.2,43.2,29.89,NW,308,0.0,0.0,86,0.00,,,0.74,Wunderground v.1.15,2013-02-09 00:00:00,
2013-02-08 19:05:00,46.7,43.0,29.90,NW,308,0.0,0.0,87,0.00,,,0.74,Wunderground v.1.15,2013-02-09 00:05:00,
2013-02-08 19:15:00,45.6,42.5,29.91,NNW,343,0.0,0.0,89,0.00,,,0.74,Wunderground v.1.15,2013-02-09 00:15:00,
2013-02-08 19:20:00,45.8,42.7,29.91,WNW,294,0.0,0.0,89,0.00,,,0.74,Wunderground v.1.15,2013-02-09 00:20:00,
2013-02-08 19:25:00,46.5,42.8,29.91,West,265,1.0,2.0,87,0.00,,,0.74,Wunderground v.1.15,2013-02-09 00:25:00,
2013-02-08 19:30:00,47.2,42.3,29.92,SE,131,1.0,2.0,83,0.00,,,0.74,Wunderground v.1.15,2013-02-09 00:30:00,
2013-02-08 19:40:00,48.0,40.5,29.93,West,265,1.0,3.0,75,0.00,,,0.74,Wunderground v.1.15,2013-02-09 00:40:00,
2013-02-08 19:45:00,48.2,39.2,29.93,North,360,1.0,3.0,71,0.00,,,0.74,Wunderground v.1.15,2013-02-09 00:45:00,
2013-02-08 19:50:00,48.4,38.7,29.93,NW,306,2.0,2.0,69,0.00,,,0.74,Wunderground v.1.15,2013-02-09 00:50:00,
2013-02-08 19:55:00,48.3,37.8,29.94,SSE,167,2.0,4.0,67,0.00,,,0.74,Wunderground v.1.15,2013-02-09 00:55:00,
2013-02-08 20:00:00,48.1,37.3,29.94,South,175,1.0,1.0,66,0.00,,,0.74,Wunderground v.1.15,2013-02-09 01:00:00,
2013-02-08 20:05:00,47.9,36.3,29.94,WSW,256,1.0,2.0,64,0.00,,,0.74,Wunderground v.1.15,2013-02-09 01:05:00,
2013-02-08 20:15:00,47.4,35.0,29.95,NNW,334,2.0,4.0,62,0.00,,,0.74,Wunderground v.1.15,2013-02-09 01:15:00,
2013-02-08 20:20:00,47.1,34.3,29.96,NNW,348,2.0,2.0,61,0.00,,,0.74,Wunderground v.1.15,2013-02-09 01:20:00,
2013-02-08 20:25:00,46.8,34.5,29.96,East,90,1.0,2.0,62,0.00,,,0.74,Wunderground v.1.15,2013-02-09 01:25:00,
2013-02-08 20:35:00,46.2,33.5,29.97,SW,230,1.0,2.0,61,0.00,,,0.74,Wunderground v.1.15,2013-02-09 01:35:00,
2013-02-08 20:40:00,45.9,33.6,29.97,NW,306,2.0,2.0,62,0.00,,,0.74,Wunderground v.1.15,2013-02-09 01:40:00,
2013-02-08 20:50:00,45.4,33.1,29.98,WNW,298,2.0,3.0,62,0.00,,,0.74,Wunderground v.1.15,2013-02-09 01:50:00,
2013-02-08 20:55:00,45.3,33.4,29.99,NW,324,2.0,3.0,63,0.00,,,0.74,Wunderground v.1.15,2013-02-09 01:55:00,
2013-02-08 21:05:00,45.0,32.8,29.99,WNW,288,2.0,2.0,62,0.00,,,0.74,Wunderground v.1.15,2013-02-09 02:05:00,
2013-02-08 21:15:00,44.7,32.5,29.99,SE,136,2.0,3.0,62,0.00,,,0.74,Wunderground v.1.15,2013-02-09 02:15:00,
2013-02-08 21:25:00,44.3,32.5,30.00,SSE,156,2.0,4.0,63,0.00,,,0.74,Wunderground v.1.15,2013-02-09 02:25:00,
2013-02-08 21:30:00,44.2,32.4,30.00,WNW,298,2.0,2.0,63,0.00,,,0.74,Wunderground v.1.15,2013-02-09 02:30:00,
2013-02-08 21:35:00,44.0,32.2,30.00,West,280,2.0,3.0,63,0.00,,,0.74,Wunderground v.1.15,2013-02-09 02:35:00,
2013-02-08 21:40:00,43.8,32.0,30.00,WNW,284,2.0,4.0,63,0.00,,,0.74,Wunderground v.1.15,2013-02-09 02:40:00,
2013-02-08 21:45:00,43.7,31.9,30.00,NW,313,2.0,4.0,63,0.00,,,0.74,Wunderground v.1.15,2013-02-09 02:45:00,
2013-02-08 21:55:00,43.5,31.7,30.01,NW,308,3.0,7.0,63,0.00,,,0.74,Wunderground v.1.15,2013-02-09 02:55:00,
2013-02-08 22:00:00,43.4,31.6,30.01,SSE,153,3.0,3.0,63,0.00,,,0.74,Wunderground v.1.15,2013-02-09 03:00:00,
2013-02-08 22:05:00,43.3,31.5,30.02,SW,224,3.0,3.0,63,0.00,,,0.74,Wunderground v.1.15,2013-02-09 03:05:00,
2013-02-08 22:15:00,43.2,31.4,30.02,NNW,330,3.0,3.0,63,0.00,,,0.74,Wunderground v.1.15,2013-02-09 03:15:00,
2013-02-08 22:20:00,43.1,31.4,30.03,WNW,299,3.0,3.0,63,0.00,,,0.74,Wunderground v.1.15,2013-02-09 03:20:00,
2013-02-08 22:30:00,42.9,31.2,30.04,WNW,290,2.0,2.0,63,0.00,,,0.74,Wunderground v.1.15,2013-02-09 03:30:00,
2013-02-08 22:35:00,42.7,31.4,30.04,NW,313,1.0,2.0,64,0.00,,,0.74,Wunderground v.1.15,2013-02-09 03:35:00,
2013-02-08 22:40:00,42.5,31.2,30.04,WNW,288,1.0,1.0,64,0.00,,,0.74,Wunderground v.1.15,2013-02-09 03:40:00,
2013-02-08 22:45:00,42.4,31.1,30.04,WNW,290,1.0,1.0,64,0.00,,,0.74,Wunderground v.1.15,2013-02-09 03:45:00,
2013-02-08 22:55:00,42.0,31.1,30.04,WNW,292,1.0,1.0,65,0.00,,,0.74,Wunderground v.1.15,2013-02-09 03:55:00,
2013-02-08 23:00:00,41.8,31.3,30.04,WNW,284,1.0,1.0,66,0.00,,,0.74,Wunderground v.1.15,2013-02-09 04:00:00,
2013-02-08 23:05:00,41.6,31.1,30.04,NW,306,1.0,2.0,66,0.00,,,0.74,Wunderground v.1.15,2013-02-09 04:05:00,
2013-02-08 23:15:00,41.4,30.9,30.04,West,275,1.0,1.0,66,0.00,,,0.74,Wunderground v.1.15,2013-02-09 04:15:00,
2013-02-08 23:20:00,41.3,31.2,30.04,NNE,15,1.0,1.0,67,0.00,,,0.74,Wunderground v.1.15,2013-02-09 04:20:00,
2013-02-08 23:25:00,41.3,31.2,30.05,WNW,294,1.0,2.0,67,0.00,,,0.74,Wunderground v.1.15,2013-02-09 04:25:00,
2013-02-08 23:30:00,41.2,31.1,30.05,WNW,301,1.0,1.0,67,0.00,,,0.74,Wunderground v.1.15,2013-02-09 04:30:00,
2013-02-08 23:40:00,40.9,30.8,30.05,NW,318,0.0,0.0,67,0.00,,,0.74,Wunderground v.1.15,2013-02-09 04:40:00,
2013-02-08 23:45:00,40.7,30.6,30.05,West,267,1.0,1.0,67,0.00,,,0.74,Wunderground v.1.15,2013-02-09 04:45:00,
2013-02-08 23:50:00,40.6,30.9,30.05,NNW,331,1.0,1.0,68,0.00,,,0.74,Wunderground v.1.15,2013-02-09 04:50:00,
2013-02-08 23:55:00,40.5,30.8,30.05,WNW,298,0.0,1.0,68,0.00,,,0.74,Wunderground v.1.15,2013-02-09 04:55:00,